Location: Sweet Grass
(48.9965°N, 111.9649°W)
Time: 01:22:59
(UTC+00:00)

PRISM - Visible Passes

Search period start: 20 July 2024 00:00
Search period end: 30 July 2024 00:00
Orbit: 493 x 511 km, 98.2° (Epoch: 19 July)

Date Brightness Start Highest point End Pass type
(mag) Time Alt. Az. Time Alt. Az. Time Alt. Az.
20 Jul ? 04:01:07 10° S 04:04:45 55° WSW 04:08:23 10° NNW visible
22 Jul ? 04:58:47 10° SW 05:00:48 14° W 05:02:51 10° WNW visible
23 Jul ? 04:38:38 10° SSW 04:41:34 22° W 04:44:32 10° NW visible
24 Jul ? 04:18:55 10° SSW 04:22:20 36° W 04:25:46 10° NNW visible
25 Jul ? 03:59:27 10° S 04:03:05 61° WSW 04:06:44 10° NNW visible
27 Jul ? 04:56:15 10° SW 04:58:31 16° W 05:00:47 10° NW visible
28 Jul ? 04:35:56 10° SSW 04:38:59 25° W 04:42:04 10° NW visible
29 Jul ? 04:16:00 10° S 04:19:29 41° W 04:22:58 10° NNW visible
